Temp
53 52 52 52 51 51 50 51 51 51 50 50 50 50 50 50 50 51 51 50 51 51
52 51 51 51 51 51 50 50 50 50 49 50 49 49 49 50 50 50 50 50 51 50
52 51 51 51 50 49 50 49 50 49 49 49 49 49 49 49 49 49 50 50 50 50
51 51 50 50 50 50 50 50 49 49 48 48 48 48 48 48 49 48 49 50 48 49
50 49 49 49 49 50 50 50 49 48 48 47 47 47 47 47 49 47 47 48 48 48
48 48 48 48 49 49 50 50 49 47 47 46 46 46 46 46 46 47 48 48 47 46
47 48 48 48 47 48 49 48 47 47 47 47 46 46 46 46 45 46 46 45 45 45
46 47 47 46 46 46 46 46 46 46 46 46 46 45 44 44 44 43 43 44 44 44
45 45 45 45 45 45 45 45 46 45 45 44 45 45 46 45 43 43 42 42 42 43
45 45 45 45 44 43 44 45 44 44 44 44 44 45 45 44 43 42 41 41 42 42
44 44 44 44 44 44 44 43 43 43 43 43 43 45 45 44 42 40 40 40 41 41
43 43 43 43 43 44 44 43 43 43 42 41 42 44 44 44 40 39 39 40 41 41
43 43 42 43 43 44 44 43 43 42 42 43 41 44 44 42 39 37 38 39 40 41
42 42 43 43 44 44 43 43 42 41 41 41 42 42 44 42 40 39 38 39 39 40
MSLP
1018.01 1018.45 1018.84 1019.21 1019.62 1019.90 1020.01 1020.07 1020.23 1020.48 1020.70 1020.88 1021.19 1021.41 1021.52 1021.62 1021.60 1021.58 1021.67 1021.69 1021.80 1021.78
1017.69 1017.99 1018.36 1018.81 1019.13 1019.40 1019.52 1019.65 1019.87 1020.04 1020.21 1020.55 1020.90 1021.16 1021.42 1021.56 1021.68 1021.59 1021.68 1021.61 1021.67 1021.73
1017.03 1017.37 1017.85 1018.39 1018.70 1018.99 1019.13 1019.33 1019.51 1019.70 1019.98 1020.29 1020.68 1020.89 1021.07 1021.32 1021.38 1021.35 1021.50 1021.66 1021.66 1021.74
1016.92 1017.25 1017.56 1017.88 1018.18 1018.52 1018.66 1018.86 1019.06 1019.28 1019.64 1020.06 1020.36 1020.69 1020.99 1021.24 1021.28 1021.40 1021.23 1021.31 1021.47 1021.32
1016.69 1017.19 1017.53 1017.68 1017.82 1017.97 1018.17 1018.32 1018.45 1018.83 1019.32 1019.81 1020.24 1020.56 1020.83 1020.97 1020.99 1021.22 1021.27 1021.50 1021.54 1021.23
1016.79 1017.10 1017.27 1017.69 1017.52 1017.64 1017.84 1018.06 1018.10 1018.53 1019.14 1019.67 1019.98 1020.28 1020.51 1020.70 1020.92 1021.00 1021.04 1021.19 1021.17 1021.29
1016.48 1016.87 1016.96 1017.20 1017.19 1017.39 1017.63 1017.91 1018.04 1018.59 1019.10 1019.47 1019.72 1020.06 1020.34 1020.53 1020.62 1020.60 1020.64 1020.81 1020.95 1020.97
1016.17 1016.39 1016.63 1017.07 1017.07 1017.25 1017.54 1017.91 1018.19 1018.66 1019.08 1019.43 1019.76 1020.18 1020.34 1020.47 1020.50 1020.53 1020.44 1020.42 1020.59 1020.76
1016.21 1015.95 1016.59 1016.99 1017.12 1017.18 1017.62 1017.96 1018.23 1018.64 1019.00 1019.45 1019.68 1019.97 1020.22 1020.38 1020.45 1020.53 1020.57 1020.38 1020.53 1020.67
1015.66 1015.94 1016.48 1016.85 1017.00 1017.22 1017.65 1017.99 1018.24 1018.60 1018.94 1019.26 1019.52 1019.83 1019.93 1020.04 1020.32 1020.38 1020.73 1020.68 1020.62 1020.77
1015.65 1015.97 1016.30 1016.58 1016.93 1017.14 1017.38 1017.70 1018.03 1018.48 1018.84 1019.04 1019.31 1019.51 1019.70 1019.99 1020.25 1020.56 1020.73 1020.71 1020.76 1020.71
1015.23 1015.82 1016.13 1016.31 1016.68 1017.05 1017.37 1017.67 1017.83 1018.19 1018.57 1018.81 1019.00 1019.33 1019.55 1019.81 1019.97 1020.32 1020.65 1020.51 1020.60 1020.64
1014.94 1015.26 1015.68 1016.08 1016.38 1016.73 1017.18 1017.41 1017.74 1017.97 1018.17 1018.40 1018.83 1019.06 1019.31 1019.65 1019.82 1020.11 1020.45 1020.44 1020.61 1020.62
1014.63 1015.01 1015.39 1015.84 1016.25 1016.60 1016.85 1017.12 1017.50 1017.72 1018.00 1018.18 1018.55 1018.91 1019.18 1019.41 1019.72 1019.82 1020.12 1020.22 1020.47 1020.61
Wind_Speed
7 5 4 5 4 4 5 5 5 6 5 5 4 4 3 3 3 4 3 4 4 2
7 7 6 7 5 4 4 4 6 6 6 5 5 4 4 3 4 3 3 4 4 3
7 7 6 5 7 7 5 6 5 6 6 5 5 5 5 4 4 5 3 3 4 3
6 6 6 6 6 7 5 6 7 6 6 6 5 5 5 5 4 5 5 5 6 5
4 5 5 5 6 6 6 6 6 6 6 6 5 5 6 5 5 6 6 6 5 6
4 5 5 6 5 6 6 6 6 6 6 6 5 5 5 5 5 6 7 7 8 7
5 5 4 4 5 5 5 5 6 6 6 5 5 5 5 4 5 5 5 5 5 5
4 5 4 4 5 5 5 5 6 6 5 4 4 3 3 3 4 4 3 3 3 4
5 4 4 4 5 5 5 5 6 5 6 5 3 5 7 6 3 3 3 2 3 2
4 5 5 5 5 6 7 6 6 6 6 5 4 7 6 7 3 2 0 1 3 4
5 5 5 5 5 5 5 7 6 6 5 4 4 8 6 8 5 2 1 3 4 3
5 5 5 5 5 5 5 6 6 6 7 6 5 9 8 6 6 4 2 1 2 3
6 6 6 5 6 5 4 5 5 5 6 8 5 9 8 7 4 4 3 2 2 5
4 5 4 4 3 4 5 5 5 6 5 5 6 6 9 11 4 4 3 3 3 2
Wind_Direction
190 190 193 200 205 221 220 221 206 208 208 205 210 218 217 233 236 229 229 215 214 196
188 187 195 207 210 223 225 225 212 203 200 202 206 212 215 233 242 227 226 212 196 181
191 191 194 198 207 217 219 212 199 197 199 195 205 207 207 223 225 213 213 207 188 183
191 197 195 206 210 217 204 199 199 193 188 196 200 206 215 230 229 222 213 208 206 178
181 189 202 214 213 202 205 196 186 173 178 187 195 203 213 225 225 225 222 213 211 200
185 194 208 219 205 195 183 182 154 157 175 185 192 198 210 212 218 220 222 220 218 210
185 202 202 208 186 173 168 166 142 159 178 185 183 192 204 205 225 230 230 220 218 198
178 183 177 190 173 153 151 161 155 159 161 158 155 181 198 219 215 226 228 211 208 194
195 147 180 177 170 153 157 164 157 155 149 163 176 215 231 222 215 213 201 215 205 142
172 169 182 175 164 165 173 160 164 162 170 175 182 211 197 158 136 122 93 288 232 184
177 178 166 165 177 171 167 174 172 175 175 170 185 178 191 168 144 189 240 262 269 197
168 169 168 175 178 176 173 178 182 182 175 173 176 201 213 196 154 161 226 240 270 218
171 169 174 175 182 178 185 191 180 178 179 184 183 201 200 149 151 165 198 189 231 251
159 166 166 167 175 179 182 181 187 178 166 174 176 194 183 160 172 187 188 190 184 208